Content
SEND FEEDBACK

Daily
Averages
Monthly
Summary
French Polynesia

PAPEETE, FRENCH POLYNESIA


Home > Oceania > French Polynesia
Elevation: 7 feet     Latitude: 17 33S     Longitude: 149 36W

WEATHER
 
SELECT A DAY
Number of Records: 214,388;   Date Range: 6/30/96 - 10/24/14
 
SHARE

PRINT THIS DATA

[ ← Previous Day ]
WEATHER ALMANAC - JULY 12, 2014
[ Next Day → ]
[ °C ]   °F
Weather ElementAverageHighLow
Temperature80.5 °F86 °F (1:00 pm)75.2 °F (12:00 am)
Dewpoint72.1 °F73.4 °F (11:30 am)69.8 °F (9:30 am)
Humidity74.7 %89 % (6:00 pm)60 % (8:00 pm)
Barometer29.88 in29.95 in (2:00 am)29.83 in (1:30 am)
Wind Speed10 mph15 mph (2:24 pm)
Weather ElementAverage
Visibility6.8 mi
Wind DirectionE (90.5 °)

Weather ElementTotal
Precipitation---
Cooling Degree Days15.6 (Base 65)
Growing Degree Days30.6 (Base 50)
Averaged from 55 records on July 12, 2014
WEATHER CONDITIONS BREAKOUT
WIND DIRECTION BREAKOUT
WEATHER BY HOUR - JULY 12, 2014
[ °C ]   °F
Local TimeTemperatureDewpointHumidityBarometerVisibilityWind DirectionWind SpeedGust SpeedPrecipitationEventsConditions
12:00 AM78.8 °F71.6 °F78 %29.86 in6.2 miNorth (10°)12.7 mphPartly Cloudy
12:30 AM78.8 °F71.6 °F78 %29.83 in6.2 miNorth (10°)11.5 mphPartly Cloudy
1:00 AM78.8 °F71.6 °F78 %29.83 in6.2 miNNE (20°)10.4 mphPartly Cloudy
1:30 AM78.8 °F71.6 °F78 %29.83 in6.2 miNNE (20°)11.5 mphScattered Clouds
2:00 AM79.0 °F72.0 °F72 %29.85 in12.0 miNorth (10°)12.7 mphMostly Cloudy
2:00 AM78.8 °F71.6 °F78 %29.83 in6.2 miNorth (10°)12.7 mphScattered Clouds
2:30 AM78.8 °F71.6 °F78 %29.83 in6.2 miNorth (10°)13.8 mphMostly Cloudy
3:00 AM78.8 °F71.6 °F78 %29.83 in6.2 miNNE (20°)12.7 mphMostly Cloudy
3:30 AM78.8 °F71.6 °F78 %29.83 in6.2 miNorth (10°)13.8 mphMostly Cloudy
4:00 AM78.8 °F71.6 °F78 %29.83 in6.2 miNorth (10°)11.5 mphOvercast
4:30 AM78.8 °F71.6 °F78 %29.83 in6.2 miNorth (10°)12.7 mphScattered Clouds
5:00 AM78.8 °F71.6 °F78 %29.83 in6.2 miNorth (10°)13.8 mphMostly Cloudy
5:30 AM78.8 °F71.6 °F78 %29.83 in6.2 miNorth (10°)12.7 mphScattered Clouds
6:00 AM78.8 °F71.6 °F78 %29.86 in6.2 miNorth (10°)12.7 mphScattered Clouds
6:30 AM78.8 °F71.6 °F78 %29.86 in6.2 miNNE (20°)11.5 mphMostly Cloudy
7:00 AM78.8 °F71.6 °F78 %29.86 in6.2 miNNE (20°)13.8 mphScattered Clouds
7:30 AM78.8 °F71.6 °F78 %29.89 in6.2 miNorth (10°)15.0 mphScattered Clouds
8:00 AM81.0 °F72.0 °F67 %29.90 in12.0 miNorth (10°)12.7 mphPartly Cloudy
8:00 AM80.6 °F71.6 °F74 %29.89 in6.2 miNorth (10°)12.7 mphScattered Clouds
8:30 AM82.4 °F71.6 °F70 %29.89 in6.2 miNNE (20°)11.5 mphMostly Cloudy
9:00 AM82.4 °F73.4 °F74 %29.92 in6.2 miNNE (20°)13.8 mphScattered Clouds
9:30 AM84.2 °F73.4 °F70 %29.92 in6.2 miNorth (10°)12.7 mphScattered Clouds
10:00 AM82.4 °F71.6 °F70 %29.92 in6.2 miNNE (20°)11.5 mphMostly Cloudy
10:30 AM82.4 °F73.4 °F74 %29.92 in6.2 miNNE (20°)11.5 mphMostly Cloudy
11:00 AM83.0 °F73.0 °F65 %29.92 in12.0 miNorth (10°)12.7 mphMostly Cloudy
11:00 AM82.4 °F73.4 °F74 %29.92 in6.2 miNorth (10°)12.7 mphMostly Cloudy
11:30 AM84.2 °F73.4 °F70 %29.89 in6.2 miNorth (10°)11.5 mphMostly Cloudy
12:00 PM84.2 °F73.4 °F70 %29.89 in6.2 miNorth (360°)11.5 mphMostly Cloudy
12:30 PM86.0 °F73.4 °F66 %29.89 in6.2 miNorth (10°)11.5 mphScattered Clouds
1:00 PM84.2 °F73.4 °F70 %29.86 in6.2 miNNE (30°)9.2 mphScattered Clouds
1:30 PM84.2 °F73.4 °F70 %29.86 in6.2 miNNE (20°)10.4 mphScattered Clouds
2:00 PM85.0 °F73.0 °F60 %29.87 in12.0 miNNE (20°)9.2 mphMostly Cloudy
2:00 PM84.2 °F73.4 °F70 %29.86 in6.2 miNNE (20°)9.2 mphScattered Clouds
2:30 PM84.2 °F71.6 °F66 %29.86 in6.2 miNorth (10°)10.4 mphScattered Clouds
3:00 PM84.2 °F71.6 °F66 %29.86 in6.2 miNorth (10°)9.2 mphMostly Cloudy
3:30 PM84.2 °F71.6 °F66 %29.86 in6.2 miNorth (360°)10.4 mphMostly Cloudy
4:00 PM82.4 °F73.4 °F74 %29.86 in6.2 miNorth (350°)10.4 mphScattered Clouds
4:30 PM84.2 °F73.4 °F70 %29.86 in6.2 miNorth (350°)8.1 mphScattered Clouds
5:00 PM82.0 °F73.0 °F69 %29.88 in9.0 miNorth (350°)8.1 mphPartly Cloudy
5:00 PM82.4 °F73.4 °F74 %29.86 in6.2 miNorth (350°)8.1 mphPartly Cloudy
5:30 PM80.6 °F73.4 °F79 %29.86 in6.2 miNNW (340°)8.1 mphPartly Cloudy
6:00 PM80.6 °F71.6 °F74 %29.89 in6.2 miNNW (340°)8.1 mphPartly Cloudy
6:30 PM80.6 °F71.6 °F74 %29.89 in6.2 miNorth (350°)5.8 mphScattered Clouds
7:00 PM80.6 °F71.6 °F74 %29.92 in6.2 miNorth (360°)5.8 mphMostly Cloudy
7:30 PM80.6 °F73.4 °F79 %29.92 in6.2 miNNE (30°)4.6 mphScattered Clouds
8:00 PM80.0 °F72.0 °F69 %29.93 in9.0 miENE (60°)4.6 mphPartly Cloudy
8:00 PM78.8 °F71.6 °F78 %29.92 in6.2 miENE (60°)4.6 mphScattered Clouds
8:30 PM78.8 °F71.6 °F78 %29.92 in6.2 miENE (70°)4.6 mphScattered Clouds
9:00 PM78.8 °F69.8 °F74 %29.92 in6.2 miEast (90°)3.5 mphMostly Cloudy
9:30 PM77.0 °F71.6 °F83 %29.95 in5.0 miSW (220°)10.4 mphRainLight Rain
10:00 PM75.2 °F71.6 °F89 %29.95 in6.2 miSSE (160°)4.6 mphRainLight Rain
10:30 PM75.2 °F71.6 °F89 %29.92 in6.2 miEast (100°)4.6 mphMostly Cloudy
11:00 PM76.0 °F71.0 °F79 %29.94 in9.0 miENE (60°)4.6 mphPartly Cloudy
11:00 PM75.2 °F71.6 °F89 %29.92 in6.2 miENE (60°)4.6 mphScattered Clouds
11:30 PM75.2 °F69.8 °F83 %29.95 in6.2 miEast (80°)4.6 mphScattered Clouds
Hourly data recorded from NTAA, located miles away from Papeete, French Polynesia







STORIES FROM OUR PARTNERS